Year,Month,Day,Hour,Minute,Value (Times are PST for temperature in C)
2015,06,24,01,16,12.10
2015,06,24,01,17,12.10
2015,06,24,01,18,12.10
2015,06,24,01,19,12.10
2015,06,24,01,20,12.10
2015,06,24,01,21,12.10
2015,06,24,01,22,12.10
2015,06,24,01,23,12.10
2015,06,24,01,24,12.10
2015,06,24,01,25,12.10
2015,06,24,01,26,12.10
2015,06,24,01,27,12.10
2015,06,24,01,28,12.10
2015,06,24,01,29,12.10
2015,06,24,01,30,12.10
2015,06,24,01,31,12.10
2015,06,24,01,32,12.10
2015,06,24,01,33,12.10
2015,06,24,01,34,12.10
2015,06,24,01,35,12.10
2015,06,24,01,36,12.10
2015,06,24,01,37,12.10
2015,06,24,01,38,12.10
2015,06,24,01,39,12.10
2015,06,24,01,40,12.10
2015,06,24,01,41,12.10
2015,06,24,01,42,12.10
2015,06,24,01,43,12.10
2015,06,24,01,44,12.10
2015,06,24,01,45,12.10
2015,06,24,01,46,12.10
2015,06,24,01,47,12.10
2015,06,24,01,48,12.10
2015,06,24,01,49,12.10
2015,06,24,01,50,12.10
2015,06,24,01,51,12.10
2015,06,24,01,52,12.10
2015,06,24,01,53,12.10
2015,06,24,01,54,12.10
2015,06,24,01,55,12.10
2015,06,24,01,56,12.10
2015,06,24,01,57,12.10
2015,06,24,01,58,12.10
2015,06,24,01,59,12.10
2015,06,24,02,00,12.10
2015,06,24,02,01,12.10
2015,06,24,02,02,12.10
2015,06,24,02,03,12.10
2015,06,24,02,04,12.10
2015,06,24,02,05,12.10
2015,06,24,02,06,12.10
2015,06,24,02,07,12.10
2015,06,24,02,08,12.10
2015,06,24,02,09,12.10
2015,06,24,02,10,12.10
2015,06,24,02,11,12.10
2015,06,24,02,12,12.10
2015,06,24,02,13,12.10
2015,06,24,02,14,12.10
2015,06,24,02,15,12.10
2015,06,24,02,16,12.00
2015,06,24,02,17,12.00
2015,06,24,02,18,12.00
2015,06,24,02,19,12.00
2015,06,24,02,20,12.00
2015,06,24,02,21,12.00
2015,06,24,02,22,12.00
2015,06,24,02,23,12.00
2015,06,24,02,24,12.00
2015,06,24,02,25,12.00
2015,06,24,02,26,12.00
2015,06,24,02,27,12.00
2015,06,24,02,28,12.00
2015,06,24,02,29,12.00
2015,06,24,02,30,12.00
2015,06,24,02,31,12.00
2015,06,24,02,32,12.00
2015,06,24,02,33,12.00
2015,06,24,02,34,12.00
2015,06,24,02,35,12.00
2015,06,24,02,36,12.00
2015,06,24,02,37,12.00
2015,06,24,02,38,12.00
2015,06,24,02,39,12.00
2015,06,24,02,40,12.00
2015,06,24,02,41,12.00
2015,06,24,02,42,12.00
2015,06,24,02,43,12.00
2015,06,24,02,44,12.00
2015,06,24,02,45,12.00
2015,06,24,02,46,12.00
2015,06,24,02,47,12.00
2015,06,24,02,48,12.00
2015,06,24,02,49,12.00
2015,06,24,02,50,12.00
2015,06,24,02,51,12.00
2015,06,24,02,52,12.00
2015,06,24,02,53,12.00
2015,06,24,02,54,12.00
2015,06,24,02,55,12.00
2015,06,24,02,56,12.00
2015,06,24,02,57,12.00
2015,06,24,02,58,12.00
2015,06,24,02,59,12.00
2015,06,24,03,00,12.00
2015,06,24,03,01,12.00
2015,06,24,03,02,12.00
2015,06,24,03,03,12.00
2015,06,24,03,04,12.00
2015,06,24,03,05,12.00
2015,06,24,03,06,12.00
2015,06,24,03,07,12.00
2015,06,24,03,08,12.00
2015,06,24,03,09,12.00
2015,06,24,03,10,12.00
2015,06,24,03,11,12.00
2015,06,24,03,12,12.00
2015,06,24,03,13,12.00
2015,06,24,03,14,12.00
2015,06,24,03,15,12.00
2015,06,24,03,16,11.90
2015,06,24,03,17,11.90
2015,06,24,03,18,11.90
2015,06,24,03,19,11.90
2015,06,24,03,20,11.90
2015,06,24,03,21,11.90
2015,06,24,03,22,11.90
2015,06,24,03,23,11.90
2015,06,24,03,24,11.90
2015,06,24,03,25,11.90
2015,06,24,03,26,11.90
2015,06,24,03,27,11.90
2015,06,24,03,28,11.90
2015,06,24,03,29,11.90
2015,06,24,03,30,11.90
2015,06,24,03,31,11.90
2015,06,24,03,32,11.90
2015,06,24,03,33,11.90
2015,06,24,03,34,11.90
2015,06,24,03,35,11.90
2015,06,24,03,36,11.90
2015,06,24,03,37,11.90
2015,06,24,03,38,11.90
2015,06,24,03,39,11.90
2015,06,24,03,40,11.90
2015,06,24,03,41,11.90
2015,06,24,03,42,11.90
2015,06,24,03,43,11.90
2015,06,24,03,44,11.90
2015,06,24,03,45,11.90
2015,06,24,03,46,12.20
2015,06,24,03,47,12.20
2015,06,24,03,48,12.20
2015,06,24,03,49,12.20
2015,06,24,03,50,12.20
2015,06,24,03,51,12.20
2015,06,24,03,52,12.20
2015,06,24,03,53,12.20
2015,06,24,03,54,12.20
2015,06,24,03,55,12.20
2015,06,24,03,56,12.20
2015,06,24,03,57,12.20
2015,06,24,03,58,12.20
2015,06,24,03,59,12.20
2015,06,24,04,00,12.20
2015,06,24,04,01,12.20
2015,06,24,04,02,12.20
2015,06,24,04,03,12.20
2015,06,24,04,04,12.20
2015,06,24,04,05,12.20
2015,06,24,04,06,12.20
2015,06,24,04,07,12.20
2015,06,24,04,08,12.20
2015,06,24,04,09,12.20
2015,06,24,04,10,12.20
2015,06,24,04,11,12.20
2015,06,24,04,12,12.20
2015,06,24,04,13,12.20
2015,06,24,04,14,12.20
2015,06,24,04,15,12.20
2015,06,24,04,16,12.80
2015,06,24,04,17,12.80
2015,06,24,04,18,12.80
2015,06,24,04,19,12.80
2015,06,24,04,20,12.80
2015,06,24,04,21,12.80
2015,06,24,04,22,12.80
2015,06,24,04,23,12.80
2015,06,24,04,24,12.80
2015,06,24,04,25,12.80
2015,06,24,04,26,12.80
2015,06,24,04,27,12.80
2015,06,24,04,28,12.80
2015,06,24,04,29,12.80
2015,06,24,04,30,12.80
2015,06,24,04,31,12.80
2015,06,24,04,32,12.80
2015,06,24,04,33,12.80
2015,06,24,04,34,12.80
2015,06,24,04,35,12.80
2015,06,24,04,36,12.80
2015,06,24,04,37,12.80
2015,06,24,04,38,12.80
2015,06,24,04,39,12.80
2015,06,24,04,40,12.80
2015,06,24,04,41,12.80
2015,06,24,04,42,12.80
2015,06,24,04,43,12.80
2015,06,24,04,44,12.80
2015,06,24,04,45,12.80
2015,06,24,04,46,13.20
2015,06,24,04,47,13.20
2015,06,24,04,48,13.20
2015,06,24,04,49,13.20
2015,06,24,04,50,13.20
2015,06,24,04,51,13.20
2015,06,24,04,52,13.20
2015,06,24,04,53,13.20
2015,06,24,04,54,13.20
2015,06,24,04,55,13.20
2015,06,24,04,56,13.20
2015,06,24,04,57,13.20
2015,06,24,04,58,13.20
2015,06,24,04,59,13.20
2015,06,24,05,00,13.20
2015,06,24,05,01,13.20
2015,06,24,05,02,13.20
2015,06,24,05,03,13.20
2015,06,24,05,04,13.20
2015,06,24,05,05,13.20
2015,06,24,05,06,13.20
2015,06,24,05,07,13.20
2015,06,24,05,08,13.20
2015,06,24,05,09,13.20
2015,06,24,05,10,13.20
2015,06,24,05,11,13.20
2015,06,24,05,12,13.20
2015,06,24,05,13,13.20
2015,06,24,05,14,13.20
2015,06,24,05,15,13.20
2015,06,24,05,16,13.70
2015,06,24,05,17,13.70
2015,06,24,05,18,13.70
2015,06,24,05,19,13.70
2015,06,24,05,20,13.70
2015,06,24,05,21,13.70
2015,06,24,05,22,13.70
2015,06,24,05,23,13.70
2015,06,24,05,24,13.70
2015,06,24,05,25,13.70
2015,06,24,05,26,13.70
2015,06,24,05,27,13.70
2015,06,24,05,28,13.70
2015,06,24,05,29,13.70
2015,06,24,05,30,13.70
2015,06,24,05,31,13.70
2015,06,24,05,32,13.70
2015,06,24,05,33,13.70
2015,06,24,05,34,13.70
2015,06,24,05,35,13.70
2015,06,24,05,36,13.70
2015,06,24,05,37,13.70
2015,06,24,05,38,13.70
2015,06,24,05,39,13.70
2015,06,24,05,40,13.70
2015,06,24,05,41,13.70
2015,06,24,05,42,13.70
2015,06,24,05,43,13.70
2015,06,24,05,44,13.70
2015,06,24,05,45,13.70
2015,06,24,05,46,12.70
2015,06,24,05,47,12.70
2015,06,24,05,48,12.70
2015,06,24,05,49,12.70
2015,06,24,05,50,12.70
2015,06,24,05,51,12.70
2015,06,24,05,52,12.70
2015,06,24,05,53,12.70
2015,06,24,05,54,12.70
2015,06,24,05,55,12.70
2015,06,24,05,56,12.70
2015,06,24,05,57,12.70
2015,06,24,05,58,12.70
2015,06,24,05,59,12.70
2015,06,24,06,00,12.70
2015,06,24,06,01,12.70
2015,06,24,06,02,12.70
2015,06,24,06,03,12.70
2015,06,24,06,04,12.70
2015,06,24,06,05,12.70
2015,06,24,06,06,12.70
2015,06,24,06,07,12.70
2015,06,24,06,08,12.70
2015,06,24,06,09,12.70
2015,06,24,06,10,12.70
2015,06,24,06,11,12.70
2015,06,24,06,12,12.70
2015,06,24,06,13,12.70
2015,06,24,06,14,12.70
2015,06,24,06,15,12.70
2015,06,24,06,16,12.70
2015,06,24,06,17,12.70
2015,06,24,06,18,12.70
2015,06,24,06,19,12.70
2015,06,24,06,20,12.70
2015,06,24,06,21,12.70
2015,06,24,06,22,12.70
2015,06,24,06,23,12.70
2015,06,24,06,24,12.70
2015,06,24,06,25,12.70
2015,06,24,06,26,12.70
2015,06,24,06,27,12.70
2015,06,24,06,28,12.70
2015,06,24,06,29,12.70
2015,06,24,06,30,12.70
2015,06,24,06,31,12.70
2015,06,24,06,32,12.70
2015,06,24,06,33,12.70
2015,06,24,06,34,12.70
2015,06,24,06,35,12.70
2015,06,24,06,36,12.70
2015,06,24,06,37,12.70
2015,06,24,06,38,12.70
2015,06,24,06,39,12.70
2015,06,24,06,40,12.70
2015,06,24,06,41,12.70
2015,06,24,06,42,12.70
2015,06,24,06,43,12.70
2015,06,24,06,44,12.70
2015,06,24,06,45,12.70
2015,06,24,06,46,13.30
2015,06,24,06,47,13.30
2015,06,24,06,48,13.30
2015,06,24,06,49,13.30
2015,06,24,06,50,13.30
2015,06,24,06,51,13.30
2015,06,24,06,52,13.30
2015,06,24,06,53,13.30
2015,06,24,06,54,13.30
2015,06,24,06,55,13.30
2015,06,24,06,56,13.30
2015,06,24,06,57,13.30
2015,06,24,06,58,13.30
2015,06,24,06,59,13.30
2015,06,24,07,00,13.30
2015,06,24,07,01,13.30
2015,06,24,07,02,13.30
2015,06,24,07,03,13.30
2015,06,24,07,04,13.30
2015,06,24,07,05,13.30
2015,06,24,07,06,13.30
2015,06,24,07,07,13.30
2015,06,24,07,08,13.30
2015,06,24,07,09,13.30
2015,06,24,07,10,13.30
2015,06,24,07,11,13.30
2015,06,24,07,12,13.30
2015,06,24,07,13,13.30
2015,06,24,07,14,13.30
2015,06,24,07,15,13.30
2015,06,24,07,16,13.00
2015,06,24,07,17,13.00
2015,06,24,07,18,13.00
2015,06,24,07,19,13.00
2015,06,24,07,20,13.00
2015,06,24,07,21,13.00
2015,06,24,07,22,13.00
2015,06,24,07,23,13.00
2015,06,24,07,24,13.00
2015,06,24,07,25,13.00
2015,06,24,07,26,13.00
2015,06,24,07,27,13.00
2015,06,24,07,28,13.00
2015,06,24,07,29,13.00
2015,06,24,07,30,13.00
2015,06,24,07,31,13.00
2015,06,24,07,32,13.00
2015,06,24,07,33,13.00
2015,06,24,07,34,13.00
2015,06,24,07,35,13.00
2015,06,24,07,36,13.00
2015,06,24,07,37,13.00
2015,06,24,07,38,13.00
2015,06,24,07,39,13.00
2015,06,24,07,40,13.00
2015,06,24,07,41,13.00
2015,06,24,07,42,13.00
2015,06,24,07,43,13.00
2015,06,24,07,44,13.00
2015,06,24,07,45,13.00
2015,06,24,07,46,12.80
2015,06,24,07,47,12.80
2015,06,24,07,48,12.80
2015,06,24,07,49,12.80
2015,06,24,07,50,12.80
2015,06,24,07,51,12.80
2015,06,24,07,52,12.80
2015,06,24,07,53,12.80
2015,06,24,07,54,12.80
2015,06,24,07,55,12.80
2015,06,24,07,56,12.80
2015,06,24,07,57,12.80
2015,06,24,07,58,12.80
2015,06,24,07,59,12.80
2015,06,24,08,00,12.80
2015,06,24,08,01,12.80
2015,06,24,08,02,12.80
2015,06,24,08,03,12.80
2015,06,24,08,04,12.80
2015,06,24,08,05,12.80
2015,06,24,08,06,12.80
2015,06,24,08,07,12.80
2015,06,24,08,08,12.80
2015,06,24,08,09,12.80
2015,06,24,08,10,12.80
2015,06,24,08,11,12.80
2015,06,24,08,12,12.80
2015,06,24,08,13,12.80
2015,06,24,08,14,12.80
2015,06,24,08,15,12.80
2015,06,24,08,16,12.80
2015,06,24,08,17,12.80
2015,06,24,08,18,12.80
2015,06,24,08,19,12.80
2015,06,24,08,20,12.80
2015,06,24,08,21,12.80
2015,06,24,08,22,12.80
2015,06,24,08,23,12.80
2015,06,24,08,24,12.80
2015,06,24,08,25,12.80
2015,06,24,08,26,12.80
2015,06,24,08,27,12.80
2015,06,24,08,28,12.80
2015,06,24,08,29,12.80
2015,06,24,08,30,12.80
2015,06,24,08,31,12.80
2015,06,24,08,32,12.80
2015,06,24,08,33,12.80
2015,06,24,08,34,12.80
2015,06,24,08,35,12.80
2015,06,24,08,36,12.80
2015,06,24,08,37,12.80
2015,06,24,08,38,12.80
2015,06,24,08,39,12.80
2015,06,24,08,40,12.80
2015,06,24,08,41,12.80
2015,06,24,08,42,12.80
2015,06,24,08,43,12.80
2015,06,24,08,44,12.80
2015,06,24,08,45,12.80
2015,06,24,08,46,12.60
2015,06,24,08,47,12.60
2015,06,24,08,48,12.60
2015,06,24,08,49,12.60
2015,06,24,08,50,12.60
2015,06,24,08,51,12.60
2015,06,24,08,52,12.60
2015,06,24,08,53,12.60
2015,06,24,08,54,12.60
2015,06,24,08,55,12.60
2015,06,24,08,56,12.60
2015,06,24,08,57,12.60
2015,06,24,08,58,12.60
2015,06,24,08,59,12.60
2015,06,24,09,00,12.60
2015,06,24,09,01,12.60
2015,06,24,09,02,12.60
2015,06,24,09,03,12.60
2015,06,24,09,04,12.60
2015,06,24,09,05,12.60
2015,06,24,09,06,12.60
2015,06,24,09,07,12.60
2015,06,24,09,08,12.60
2015,06,24,09,09,12.60
2015,06,24,09,10,12.60
2015,06,24,09,11,12.60
2015,06,24,09,12,12.60
2015,06,24,09,13,12.60
2015,06,24,09,14,12.60
2015,06,24,09,15,12.60
2015,06,24,09,16,12.50
2015,06,24,09,17,12.50
2015,06,24,09,18,12.50
2015,06,24,09,19,12.50
2015,06,24,09,20,12.50
2015,06,24,09,21,12.50
2015,06,24,09,22,12.50
2015,06,24,09,23,12.50
2015,06,24,09,24,12.50
2015,06,24,09,25,12.50
2015,06,24,09,26,12.50
2015,06,24,09,27,12.50
2015,06,24,09,28,12.50
2015,06,24,09,29,12.50
2015,06,24,09,30,12.50
2015,06,24,09,31,12.50
2015,06,24,09,32,12.50
2015,06,24,09,33,12.50
2015,06,24,09,34,12.50
2015,06,24,09,35,12.50
2015,06,24,09,36,12.50
2015,06,24,09,37,12.50
2015,06,24,09,38,12.50
2015,06,24,09,39,12.50
2015,06,24,09,40,12.50
2015,06,24,09,41,12.50
2015,06,24,09,42,12.50
2015,06,24,09,43,12.50
2015,06,24,09,44,12.50
2015,06,24,09,45,12.50
2015,06,24,09,46,13.10
2015,06,24,09,47,13.10
2015,06,24,09,48,13.10
2015,06,24,09,49,13.10
2015,06,24,09,50,13.10
2015,06,24,09,51,13.10
2015,06,24,09,52,13.10
2015,06,24,09,53,13.10
2015,06,24,09,54,13.10
2015,06,24,09,55,13.10
2015,06,24,09,56,13.10
2015,06,24,09,57,13.10
2015,06,24,09,58,13.10
2015,06,24,09,59,13.10
2015,06,24,10,00,13.10
2015,06,24,10,01,13.10
2015,06,24,10,02,13.10
2015,06,24,10,03,13.10
2015,06,24,10,04,13.10
2015,06,24,10,05,13.10
2015,06,24,10,06,13.10
2015,06,24,10,07,13.10
2015,06,24,10,08,13.10
2015,06,24,10,09,13.10
2015,06,24,10,10,13.10
2015,06,24,10,11,13.10
2015,06,24,10,12,13.10
2015,06,24,10,13,13.10
2015,06,24,10,14,13.10
2015,06,24,10,15,13.10
2015,06,24,10,16,12.90
2015,06,24,10,17,12.90
2015,06,24,10,18,12.90
2015,06,24,10,19,12.90
2015,06,24,10,20,12.90
2015,06,24,10,21,12.90
2015,06,24,10,22,12.90
2015,06,24,10,23,12.90
2015,06,24,10,24,12.90
2015,06,24,10,25,12.90
2015,06,24,10,26,12.90
2015,06,24,10,27,12.90
2015,06,24,10,28,12.90
2015,06,24,10,29,12.90
2015,06,24,10,30,12.90
2015,06,24,10,31,12.90
2015,06,24,10,32,12.90
2015,06,24,10,33,12.90
2015,06,24,10,34,12.90
2015,06,24,10,35,12.90
2015,06,24,10,36,12.90
2015,06,24,10,37,12.90
2015,06,24,10,38,12.90
2015,06,24,10,39,12.90
2015,06,24,10,40,12.90
2015,06,24,10,41,12.90
2015,06,24,10,42,12.90
2015,06,24,10,43,12.90
2015,06,24,10,44,12.90
2015,06,24,10,45,12.90
2015,06,24,10,46,13.30
2015,06,24,10,47,13.30
2015,06,24,10,48,13.30
2015,06,24,10,49,13.30
2015,06,24,10,50,13.30
2015,06,24,10,51,13.30
2015,06,24,10,52,13.30
2015,06,24,10,53,13.30
2015,06,24,10,54,13.30
2015,06,24,10,55,13.30
2015,06,24,10,56,13.30
2015,06,24,10,57,13.30
2015,06,24,10,58,13.30
2015,06,24,10,59,13.30
2015,06,24,11,00,13.30
2015,06,24,11,01,13.30
2015,06,24,11,02,13.30
2015,06,24,11,03,13.30
2015,06,24,11,04,13.30
2015,06,24,11,05,13.30
2015,06,24,11,06,13.30
2015,06,24,11,07,13.30
2015,06,24,11,08,13.30
2015,06,24,11,09,13.30
2015,06,24,11,10,13.30
2015,06,24,11,11,13.30
2015,06,24,11,12,13.30
2015,06,24,11,13,13.30
2015,06,24,11,14,13.30
2015,06,24,11,15,13.30
2015,06,24,11,16,12.80
2015,06,24,11,17,12.80
2015,06,24,11,18,12.80
2015,06,24,11,19,12.80
2015,06,24,11,20,12.80
2015,06,24,11,21,12.80
2015,06,24,11,22,12.80
2015,06,24,11,23,12.80
2015,06,24,11,24,12.80
2015,06,24,11,25,12.80
2015,06,24,11,26,12.80
2015,06,24,11,27,12.80
2015,06,24,11,28,12.80
2015,06,24,11,29,12.80
2015,06,24,11,30,12.80
2015,06,24,11,31,12.80
2015,06,24,11,32,12.80
2015,06,24,11,33,12.80
2015,06,24,11,34,12.80
2015,06,24,11,35,12.80
2015,06,24,11,36,12.80
2015,06,24,11,37,12.80
2015,06,24,11,38,12.80
2015,06,24,11,39,12.80
2015,06,24,11,40,12.80
2015,06,24,11,41,12.80
2015,06,24,11,42,12.80
2015,06,24,11,43,12.80
2015,06,24,11,44,12.80
2015,06,24,11,45,12.80
2015,06,24,11,46,12.90
2015,06,24,11,47,12.90
2015,06,24,11,48,12.90
2015,06,24,11,49,12.90
2015,06,24,11,50,12.90
2015,06,24,11,51,12.90
2015,06,24,11,52,12.90
2015,06,24,11,53,12.90
2015,06,24,11,54,12.90
2015,06,24,11,55,12.90
2015,06,24,11,56,12.90
2015,06,24,11,57,12.90
2015,06,24,11,58,12.90
2015,06,24,11,59,12.90
2015,06,24,12,00,12.90
2015,06,24,12,01,12.90
2015,06,24,12,02,12.90
2015,06,24,12,03,12.90
2015,06,24,12,04,12.90
2015,06,24,12,05,12.90
2015,06,24,12,06,12.90
2015,06,24,12,07,12.90
2015,06,24,12,08,12.90
2015,06,24,12,09,12.90
2015,06,24,12,10,12.90
2015,06,24,12,11,12.90
2015,06,24,12,12,12.90
2015,06,24,12,13,12.90
2015,06,24,12,14,12.90
2015,06,24,12,15,12.90
2015,06,24,12,16,13.00
2015,06,24,12,17,13.00
2015,06,24,12,18,13.00
2015,06,24,12,19,13.00
2015,06,24,12,20,13.00
2015,06,24,12,21,13.00
2015,06,24,12,22,13.00
2015,06,24,12,23,13.00
2015,06,24,12,24,13.00
2015,06,24,12,25,13.00
2015,06,24,12,26,13.00
2015,06,24,12,27,13.00
2015,06,24,12,28,13.00
2015,06,24,12,29,13.00
2015,06,24,12,30,13.00
2015,06,24,12,31,13.00
2015,06,24,12,32,13.00
2015,06,24,12,33,13.00
2015,06,24,12,34,13.00
2015,06,24,12,35,13.00
2015,06,24,12,36,13.00
2015,06,24,12,37,13.00
2015,06,24,12,38,13.00
2015,06,24,12,39,13.00
2015,06,24,12,40,13.00
2015,06,24,12,41,13.00
2015,06,24,12,42,13.00
2015,06,24,12,43,13.00
2015,06,24,12,44,13.00
2015,06,24,12,45,13.00
2015,06,24,12,46,12.80
2015,06,24,12,47,12.80
2015,06,24,12,48,12.80
2015,06,24,12,49,12.80
2015,06,24,12,50,12.80
2015,06,24,12,51,12.80
2015,06,24,12,52,12.80
2015,06,24,12,53,12.80
2015,06,24,12,54,12.80
2015,06,24,12,55,12.80
2015,06,24,12,56,12.80
2015,06,24,12,57,12.80
2015,06,24,12,58,12.80
2015,06,24,12,59,12.80
2015,06,24,13,00,12.80
2015,06,24,13,01,12.80
2015,06,24,13,02,12.80
2015,06,24,13,03,12.80
2015,06,24,13,04,12.80
2015,06,24,13,05,12.80
2015,06,24,13,06,12.80
2015,06,24,13,07,12.80
2015,06,24,13,08,12.80
2015,06,24,13,09,12.80
2015,06,24,13,10,12.80
2015,06,24,13,11,12.80
2015,06,24,13,12,12.80
2015,06,24,13,13,12.80
2015,06,24,13,14,12.80
2015,06,24,13,15,12.80
2015,06,24,13,16,12.60
2015,06,24,13,17,12.60
2015,06,24,13,18,12.60
2015,06,24,13,19,12.60
2015,06,24,13,20,12.60
2015,06,24,13,21,12.60
2015,06,24,13,22,12.60
2015,06,24,13,23,12.60
2015,06,24,13,24,12.60
2015,06,24,13,25,12.60
2015,06,24,13,26,12.60
2015,06,24,13,27,12.60
2015,06,24,13,28,12.60
2015,06,24,13,29,12.60
2015,06,24,13,30,12.60
2015,06,24,13,31,12.60
2015,06,24,13,32,12.60
2015,06,24,13,33,12.60
2015,06,24,13,34,12.60
2015,06,24,13,35,12.60
2015,06,24,13,36,12.60
2015,06,24,13,37,12.60
2015,06,24,13,38,12.60
2015,06,24,13,39,12.60
2015,06,24,13,40,12.60
2015,06,24,13,41,12.60
2015,06,24,13,42,12.60
2015,06,24,13,43,12.60
2015,06,24,13,44,12.60
2015,06,24,13,45,12.60
2015,06,24,13,46,12.90
2015,06,24,13,47,12.90
2015,06,24,13,48,12.90
2015,06,24,13,49,12.90
2015,06,24,13,50,12.90
2015,06,24,13,51,12.90
2015,06,24,13,52,12.90
2015,06,24,13,53,12.90
2015,06,24,13,54,12.90
2015,06,24,13,55,12.90
2015,06,24,13,56,12.90
2015,06,24,13,57,12.90
2015,06,24,13,58,12.90
2015,06,24,13,59,12.90
2015,06,24,14,00,12.90
2015,06,24,14,01,12.90
2015,06,24,14,02,12.90
2015,06,24,14,03,12.90
2015,06,24,14,04,12.90
2015,06,24,14,05,12.90
2015,06,24,14,06,12.90
2015,06,24,14,07,12.90
2015,06,24,14,08,12.90
2015,06,24,14,09,12.90
2015,06,24,14,10,12.90
2015,06,24,14,11,12.90
2015,06,24,14,12,12.90
2015,06,24,14,13,12.90
2015,06,24,14,14,12.90
2015,06,24,14,15,12.90
2015,06,24,14,16,13.30
2015,06,24,14,17,13.30
2015,06,24,14,18,13.30
2015,06,24,14,19,13.30
2015,06,24,14,20,13.30
2015,06,24,14,21,13.30
2015,06,24,14,22,13.30
2015,06,24,14,23,13.30
2015,06,24,14,24,13.30
2015,06,24,14,25,13.30
2015,06,24,14,26,13.30
2015,06,24,14,27,13.30
2015,06,24,14,28,13.30
2015,06,24,14,29,13.30
2015,06,24,14,30,13.30
2015,06,24,14,31,13.30
2015,06,24,14,32,13.30
2015,06,24,14,33,13.30
2015,06,24,14,34,13.30
2015,06,24,14,35,13.30
2015,06,24,14,36,13.30
2015,06,24,14,37,13.30
2015,06,24,14,38,13.30
2015,06,24,14,39,13.30
2015,06,24,14,40,13.30
2015,06,24,14,41,13.30
2015,06,24,14,42,13.30
2015,06,24,14,43,13.30
2015,06,24,14,44,13.30
2015,06,24,14,45,13.30
2015,06,24,14,46,13.20
2015,06,24,14,47,13.20
2015,06,24,14,48,13.20
2015,06,24,14,49,13.20
2015,06,24,14,50,13.20
2015,06,24,14,51,13.20
2015,06,24,14,52,13.20
2015,06,24,14,53,13.20
2015,06,24,14,54,13.20
2015,06,24,14,55,13.20
2015,06,24,14,56,13.20
2015,06,24,14,57,13.20
2015,06,24,14,58,13.20
2015,06,24,14,59,13.20
2015,06,24,15,00,13.20
2015,06,24,15,01,13.20
2015,06,24,15,02,13.20
2015,06,24,15,03,13.20
2015,06,24,15,04,13.20
2015,06,24,15,05,13.20
2015,06,24,15,06,13.20
2015,06,24,15,07,13.20
2015,06,24,15,08,13.20
2015,06,24,15,09,13.20
2015,06,24,15,10,13.20
2015,06,24,15,11,13.20
2015,06,24,15,12,13.20
2015,06,24,15,13,13.20
2015,06,24,15,14,13.20
2015,06,24,15,15,13.20
2015,06,24,15,16,14.40
2015,06,24,15,17,14.40
2015,06,24,15,18,14.40
2015,06,24,15,19,14.40
2015,06,24,15,20,14.40
2015,06,24,15,21,14.40
2015,06,24,15,22,14.40
2015,06,24,15,23,14.40
2015,06,24,15,24,14.40
2015,06,24,15,25,14.40
2015,06,24,15,26,14.40
2015,06,24,15,27,14.40
2015,06,24,15,28,14.40
2015,06,24,15,29,14.40
2015,06,24,15,30,14.40
2015,06,24,15,31,14.40
2015,06,24,15,32,14.40
2015,06,24,15,33,14.40
2015,06,24,15,34,14.40
2015,06,24,15,35,14.40
2015,06,24,15,36,14.40
2015,06,24,15,37,14.40
2015,06,24,15,38,14.40
2015,06,24,15,39,14.40
2015,06,24,15,40,14.40
2015,06,24,15,41,14.40
2015,06,24,15,42,14.40
2015,06,24,15,43,14.40
2015,06,24,15,44,14.40
2015,06,24,15,45,14.40
2015,06,24,15,46,14.10
2015,06,24,15,47,14.10
2015,06,24,15,48,14.10
2015,06,24,15,49,14.10
2015,06,24,15,50,14.10
2015,06,24,15,51,14.10
2015,06,24,15,52,14.10
2015,06,24,15,53,14.10
2015,06,24,15,54,14.10
2015,06,24,15,55,14.10
2015,06,24,15,56,14.10
2015,06,24,15,57,14.10
2015,06,24,15,58,14.10
2015,06,24,15,59,14.10
2015,06,24,16,00,14.10
2015,06,24,16,01,14.10
2015,06,24,16,02,14.10
2015,06,24,16,03,14.10
2015,06,24,16,04,14.10
2015,06,24,16,05,14.10
2015,06,24,16,06,14.10
2015,06,24,16,07,14.10
2015,06,24,16,08,14.10
2015,06,24,16,09,14.10
2015,06,24,16,10,14.10
2015,06,24,16,11,14.10
2015,06,24,16,12,14.10
2015,06,24,16,13,14.10
2015,06,24,16,14,14.10
2015,06,24,16,15,14.10
2015,06,24,16,16,13.70
2015,06,24,16,17,13.70
2015,06,24,16,18,13.70
2015,06,24,16,19,13.70
2015,06,24,16,20,13.70
2015,06,24,16,21,13.70
2015,06,24,16,22,13.70
2015,06,24,16,23,13.70
2015,06,24,16,24,13.70
2015,06,24,16,25,13.70
2015,06,24,16,26,13.70
2015,06,24,16,27,13.70
2015,06,24,16,28,13.70
2015,06,24,16,29,13.70
2015,06,24,16,30,13.70
2015,06,24,16,31,13.70
2015,06,24,16,32,13.70
2015,06,24,16,33,13.70
2015,06,24,16,34,13.70
2015,06,24,16,35,13.70
2015,06,24,16,36,13.70
2015,06,24,16,37,13.70
2015,06,24,16,38,13.70
2015,06,24,16,39,13.70
2015,06,24,16,40,13.70
2015,06,24,16,41,13.70
2015,06,24,16,42,13.70
2015,06,24,16,43,13.70
2015,06,24,16,44,13.70
2015,06,24,16,45,13.70
2015,06,24,16,46,14.30
2015,06,24,16,47,14.30
2015,06,24,16,48,14.30
2015,06,24,16,49,14.30
2015,06,24,16,50,14.30
2015,06,24,16,51,14.30
2015,06,24,16,52,14.30
2015,06,24,16,53,14.30
2015,06,24,16,54,14.30
2015,06,24,16,55,14.30
2015,06,24,16,56,14.30
2015,06,24,16,57,14.30
2015,06,24,16,58,14.30
2015,06,24,16,59,14.30
2015,06,24,17,00,14.30
2015,06,24,17,01,14.30
2015,06,24,17,02,14.30
2015,06,24,17,03,14.30
2015,06,24,17,04,14.30
2015,06,24,17,05,14.30
2015,06,24,17,06,14.30
2015,06,24,17,07,14.30
2015,06,24,17,08,14.30
2015,06,24,17,09,14.30
2015,06,24,17,10,14.30
2015,06,24,17,11,14.30
2015,06,24,17,12,14.30
2015,06,24,17,13,14.30
2015,06,24,17,14,14.30
2015,06,24,17,15,14.30
2015,06,24,17,16,13.60
2015,06,24,17,17,13.60
2015,06,24,17,18,13.60
2015,06,24,17,19,13.60
2015,06,24,17,20,13.60
2015,06,24,17,21,13.60
2015,06,24,17,22,13.60
2015,06,24,17,23,13.60
2015,06,24,17,24,13.60
2015,06,24,17,25,13.60
2015,06,24,17,26,13.60
2015,06,24,17,27,13.60
2015,06,24,17,28,13.60
2015,06,24,17,29,13.60
2015,06,24,17,30,13.60
2015,06,24,17,31,13.60
2015,06,24,17,32,13.60
2015,06,24,17,33,13.60
2015,06,24,17,34,13.60
2015,06,24,17,35,13.60
2015,06,24,17,36,13.60
2015,06,24,17,37,13.60
2015,06,24,17,38,13.60
2015,06,24,17,39,13.60
2015,06,24,17,40,13.60
2015,06,24,17,41,13.60
2015,06,24,17,42,13.60
2015,06,24,17,43,13.60
2015,06,24,17,44,13.60
2015,06,24,17,45,13.60
2015,06,24,17,46,14.00
2015,06,24,17,47,14.00
2015,06,24,17,48,14.00
2015,06,24,17,49,14.00
2015,06,24,17,50,14.00
2015,06,24,17,51,14.00
2015,06,24,17,52,14.00
2015,06,24,17,53,14.00
2015,06,24,17,54,14.00
2015,06,24,17,55,14.00
2015,06,24,17,56,14.00
2015,06,24,17,57,14.00
2015,06,24,17,58,14.00
2015,06,24,17,59,14.00
2015,06,24,18,00,14.00
2015,06,24,18,01,14.00
2015,06,24,18,02,14.00
2015,06,24,18,03,14.00
2015,06,24,18,04,14.00
2015,06,24,18,05,14.00
2015,06,24,18,06,14.00
2015,06,24,18,07,14.00
2015,06,24,18,08,14.00
2015,06,24,18,09,14.00
2015,06,24,18,10,14.00
2015,06,24,18,11,14.00
2015,06,24,18,12,14.00
2015,06,24,18,13,14.00
2015,06,24,18,14,14.00
2015,06,24,18,15,14.00
2015,06,24,18,16,13.70
2015,06,24,18,17,13.70
2015,06,24,18,18,13.70
2015,06,24,18,19,13.70
2015,06,24,18,20,13.70
2015,06,24,18,21,13.70
2015,06,24,18,22,13.70
2015,06,24,18,23,13.70
2015,06,24,18,24,13.70
2015,06,24,18,25,13.70
2015,06,24,18,26,13.70
2015,06,24,18,27,13.70
2015,06,24,18,28,13.70
2015,06,24,18,29,13.70
2015,06,24,18,30,13.70
2015,06,24,18,31,13.70
2015,06,24,18,32,13.70
2015,06,24,18,33,13.70
2015,06,24,18,34,13.70
2015,06,24,18,35,13.70